[[{"header":{"parameterUnit":"m.s-1","parameterCategory":2,"la1":30.2991,"la2":30.254,"lo1":-89.0895,"lo2":-89.0444,"dy":0.0017,"dx":0.0017,"nx":28,"ny":28,"refTime":"2024-06-30T09:00:00:Z","depth":"0","parameterNumber":2,"parameterNumberName":"U-component_of_CURRENTS"},"data":[0,0,0,0,0,0,0,0,0,0,0,0,0,0,0,0,0,0,0,0,0,0,0,0,0,0,0,0,0,0,0,0,0,0,0,0,0,0,0,0,0,0,0,0,0,0,0,0,0,0,0,0,0,0,0,0,0,0,0.2243,0.2244,0,0.2307,0.2307,0.2308,0.2266,0.2264,0.2263,0.2261,0.2262,0.2263,0.2265,0,0,0,0,0,0,0,0,0,0,0,0,0,0.2094,0.2096,0.2243,0.2244,0.2245,0.2307,0.2307,0.2308,0.2266,0.2264,0.2262,0.226,0.2261,0.2263,0.2265,0,0,0,0,0,0,0,0,0,0,0,0,0,0.2155,0.2097,0.2243,0.2234,0.2234,0.2307,0.2307,0.2308,0.2267,0.2264,0.2262,0.2259,0.226,0.2263,0.2265,0.233,0,0,0.2272,0.2273,0,0,0,0,0,0,0,0,0.2152,0.2161,0.2234,0.2235,0.2235,0.2278,0.2255,0.2313,0.2267,0.2251,0.2261,0.2258,0.2265,0.2267,0.2281,0.233,0.233,0.2272,0.2274,0.2275,0.2276,0,0,0,0,0,0,0,0.2148,0.2158,0.2266,0.2236,0.2236,0.223,0.2235,0.2266,0.2268,0.2252,0.225,0.2263,0.2264,0.2279,0.2281,0.233,0.2272,0.2274,0.2276,0.2277,0.2336,0.2337,0,0,0,0,0,0,0.2149,0.2154,0.2264,0.2268,0.2189,0.2235,0.2241,0.2265,0.2269,0.2269,0.2265,0.2261,0.2276,0.2278,0.2281,0.2293,0.2275,0.2277,0.2278,0.2336,0.2336,0.2337,0,0,0,0,0,0,0.2145,0.2158,0.2261,0.2213,0.2226,0.224,0.2267,0.2267,0.2267,0.228,0.2277,0.2262,0.2275,0.2277,0.2286,0.2295,0.2278,0.228,0.2336,0.2336,0.2337,0.2359,0,0,0,0,0,0,0.2141,0.2157,0.2174,0.2214,0.2229,0.2288,0.227,0.227,0.2281,0.2276,0.2278,0.2276,0.2273,0.2283,0.2289,0.2298,0.2282,0.2336,0.2336,0.2336,0.2358,0.236,0.2362,0,0,0,0,0,0.2136,0.2148,0.2175,0.2188,0.2253,0.2288,0.2295,0.2294,0.2283,0.2284,0.2281,0.2275,0.2288,0.2286,0.2292,0.2302,0.2336,0.2336,0.2336,0.2357,0.236,0.2362,0,0,0,0,0,0,0.2094,0.2148,0.2177,0.2208,0.2247,0.2281,0.2283,0.2296,0.23,0.2287,0.229,0.2289,0.2302,0.23,0.2297,0.2317,0.2307,0.2309,0.2321,0.2323,0.2325,0.2326,0.2284,0,0,0,0,0,0.2101,0.2116,0.2181,0.2204,0.2225,0.2262,0.2277,0.2284,0.2297,0.2295,0.2317,0.2318,0.2316,0.2314,0.2327,0.2348,0.2369,0.2353,0.2355,0.2357,0.2361,0.2369,0.2372,0.2338,0.2338,0.2338,0,0,0.2082,0.2123,0.2126,0.2195,0.2223,0.2254,0.2261,0.2281,0.2298,0.2299,0.2328,0.2338,0.2325,0.234,0.2344,0.2333,0.2389,0.2357,0.2359,0.2362,0.237,0.2373,0.2376,0.2338,0.2338,0.2338,0,0,0.2071,0.2102,0.2124,0.2156,0.2213,0.2234,0.2241,0.2299,0.2308,0.2347,0.2341,0.2355,0.2379,0.2371,0.2362,0.2385,0.2404,0.2385,0.2391,0.2399,0.2402,0.2405,0.2488,0.2498,0.2377,0.2377,0.2377,0,0.2048,0.2099,0.2133,0.2174,0.2183,0.2225,0.2244,0.2274,0.233,0.233,0.2348,0.2381,0.2389,0.2375,0.2386,0.2391,0.242,0.2384,0.2402,0.2405,0.2408,0.2491,0.2502,0.2378,0.2378,0.2378,0.2378,0,0.2066,0.2105,0.2112,0.2173,0.2191,0.2202,0.2252,0.2273,0.2297,0.233,0.2353,0.2388,0.2395,0.2406,0.2407,0.2422,0.2451,0.2412,0.2399,0.2413,0.25,0.2511,0.238,0.2379,0.2379,0.2379,0,0,0.2009,0.2103,0.2104,0.213,0.218,0.2191,0.2206,0.2228,0.2225,0.2302,0.2305,0.2348,0.2385,0.238,0.2399,0.2419,0.2497,0.243,0.243,0.2518,0.2575,0.2631,0.2649,0.2454,0.2454,0.2455,0.2649,0,0.2009,0.2068,0.2106,0.2129,0.2158,0.2169,0.2177,0.2196,0.2222,0.2249,0.2285,0.2314,0.2367,0.238,0.2414,0.2475,0.2517,0.2452,0.2543,0.2548,0.2598,0.2659,0.2624,0.2795,0.266,0.2661,0.2663,0,0.2016,0.2057,0.2084,0.2111,0.2117,0.2127,0.2103,0.2123,0.2149,0.217,0.2209,0.2256,0.2335,0.2355,0.2498,0.2456,0.2523,0.2572,0.2579,0.2626,0.2621,0.2748,0.2819,0.2747,0.2679,0.2678,0.2677,0,0.1961,0.2025,0.2033,0.2044,0.2092,0.2077,0.2083,0.2096,0.2112,0.2134,0.2168,0.2236,0.2315,0.2389,0.2558,0.2517,0.2717,0.2656,0.2776,0.2783,0.277,0.2774,0.278,0.2725,0.2724,0.2724,0.2723,0,0.1934,0.1945,0.2013,0.202,0.2018,0.2047,0.2039,0.2042,0.2069,0.2114,0.2151,0.223,0.2325,0.2463,0.2562,0.2759,0.2733,0.2811,0.283,0.2784,0.2787,0.2733,0.2649,0.2731,0.2729,0.2728,0.2727,0,0.1896,0.1927,0.1967,0.2008,0.2009,0.2015,0.2041,0.2047,0.2071,0.2135,0.2154,0.2259,0.2446,0.2576,0.2729,0.2801,0.2881,0.2991,0.2982,0.2995,0.2997,0.2915,0.2848,0.2807,0.3142,0.3144,0.3146,0,0.1888,0.1909,0.1966,0.1977,0.2001,0.2014,0.2024,0.2045,0.2079,0.2188,0.2237,0.2399,0.2546,0.2823,0.296,0.3149,0.2999,0.3182,0.3069,0.3025,0.2947,0.2786,0.2743,0.3093,0.3094,0.3095,0.3096,0,0.1887,0.191,0.1936,0.1961,0.1981,0.2004,0.2036,0.2059,0.2116,0.2187,0.2314,0.2426,0.2729,0.2899,0.313,0.3229,0.3038,0.3211,0.3134,0.2896,0.2748,0.2709,0.2989,0.3107,0.3106,0.3105,0.3105,0.3104,0.1877,0.19,0.1913,0.1932,0.1948,0.1954,0.1947,0.2018,0.2061,0.2148,0.2326,0.2477,0.2765,0.3091,0.3172,0.3255,0.3163,0.319,0.3106,0.2958,0.2859,0.3211,0.3349,0.335,0.335,0.335,0.335,0,0.1835,0.1839,0.1868,0.1858,0.1838,0.187,0.191,0.1903,0.1944,0.2122,0.2239,0.2524,0.2769,0.2972,0.318,0.3135,0.3018,0.3071,0.2806,0.2779,0.3092,0.3031,0.3141,0.3141,0.3142,0.3142,0.3142,0.3142,0.1793,0.177,0.1788,0.1723,0.1715,0.1663,0.1668,0.1708,0.1805,0.1949,0.2098,0.2267,0.2574,0.2853,0.2933,0.2922,0.2714,0.2664,0.262,0.2809,0.2811,0.2813,0.2738,0.2785,0.2784,0.2266,0.2262,0.2259]},{"header":{"parameterUnit":"m.s-1","parameterCategory":2,"la1":30.2991,"la2":30.254,"lo1":-89.0895,"lo2":-89.0444,"dy":0.0017,"dx":0.0017,"nx":28,"ny":28,"refTime":"2024-06-30T09:00:00:Z","depth":"0","parameterNumber":3,"parameterNumberName":"V-component_of_CURRENTS"},"data":[0,0,0,0,0,0,0,0,0,0,0,0,0,0,0,0,0,0,0,0,0,0,0,0,0,0,0,0,0,0,0,0,0,0,0,0,0,0,0,0,0,0,0,0,0,0,0,0,0,0,0,0,0,0,0,0,0,0,0.065,0.065,0,0.0657,0.0657,0.0658,0.0657,0.0657,0.0657,0.0657,0.0684,0.0685,0.0685,0,0,0,0,0,0,0,0,0,0,0,0,0,0.0621,0.0622,0.065,0.065,0.065,0.0657,0.0657,0.0658,0.0657,0.0657,0.0657,0.0657,0.0683,0.0684,0.0685,0,0,0,0,0,0,0,0,0,0,0,0,0,0.0631,0.0622,0.065,0.0651,0.0651,0.0657,0.0657,0.0658,0.0657,0.0657,0.0657,0.0657,0.0683,0.0684,0.0686,0.0696,0,0,0.0689,0.069,0,0,0,0,0,0,0,0,0.0631,0.0632,0.0651,0.0651,0.0651,0.0656,0.0657,0.0671,0.0657,0.0655,0.0657,0.0657,0.0677,0.0678,0.0679,0.0697,0.0698,0.0689,0.069,0.0691,0.0691,0,0,0,0,0,0,0,0.063,0.0632,0.0653,0.0651,0.0651,0.0646,0.0648,0.066,0.0666,0.0655,0.0655,0.0656,0.0677,0.0678,0.068,0.0699,0.0689,0.069,0.0691,0.0692,0.0654,0.0653,0,0,0,0,0,0,0.0631,0.0632,0.0652,0.0653,0.0641,0.0647,0.0648,0.0655,0.0666,0.0667,0.0656,0.0656,0.0676,0.0679,0.0681,0.064,0.0691,0.0692,0.0692,0.0656,0.0654,0.0652,0,0,0,0,0,0,0.063,0.0633,0.0652,0.0642,0.0644,0.0648,0.0654,0.0655,0.0648,0.0667,0.0669,0.0648,0.0676,0.0679,0.0664,0.0643,0.0692,0.0693,0.0658,0.0655,0.0653,0.0592,0,0,0,0,0,0,0.0629,0.0633,0.0638,0.0642,0.0645,0.0639,0.0655,0.0655,0.065,0.0649,0.0661,0.0663,0.0676,0.0662,0.0665,0.0645,0.0694,0.066,0.0657,0.0654,0.0596,0.0587,0.058,0,0,0,0,0,0.0628,0.0628,0.0638,0.0641,0.0652,0.0638,0.0638,0.064,0.0649,0.0636,0.0636,0.0663,0.0644,0.0662,0.0666,0.0646,0.0662,0.0658,0.0654,0.0599,0.0589,0.058,0,0,0,0,0,0,0.0621,0.0628,0.0639,0.0643,0.0636,0.0638,0.0632,0.0635,0.0627,0.0629,0.0645,0.0647,0.0623,0.064,0.0659,0.0622,0.0656,0.0653,0.0613,0.0603,0.0595,0.0615,0.0695,0,0,0,0,0,0.0624,0.0627,0.0627,0.0633,0.0627,0.063,0.0627,0.0627,0.0622,0.0618,0.0626,0.0627,0.0612,0.0612,0.0609,0.0597,0.0621,0.0583,0.0575,0.0569,0.0585,0.0581,0.0574,0.0639,0.0639,0.064,0,0,0.0627,0.0631,0.0635,0.0632,0.0631,0.0622,0.0627,0.0616,0.0604,0.0624,0.061,0.0602,0.06,0.0575,0.0567,0.0588,0.056,0.0564,0.0558,0.0579,0.0576,0.057,0.0565,0.0637,0.0637,0.0638,0,0,0.0638,0.0633,0.0643,0.0628,0.0622,0.0612,0.0605,0.0599,0.0586,0.057,0.0569,0.0543,0.0545,0.0526,0.0519,0.0467,0.0515,0.0467,0.0451,0.0445,0.044,0.0436,0.0455,0.0453,0.0467,0.0467,0.0467,0,0.0641,0.0657,0.064,0.0637,0.0629,0.0606,0.0605,0.0578,0.0568,0.0552,0.0558,0.0532,0.052,0.0483,0.0455,0.0451,0.0471,0.0488,0.0436,0.0433,0.0431,0.045,0.045,0.0464,0.0464,0.0465,0.0465,0,0.0669,0.0666,0.066,0.0653,0.0634,0.0621,0.0586,0.0549,0.0534,0.0526,0.0488,0.047,0.0463,0.0435,0.043,0.0395,0.0423,0.0424,0.0466,0.0421,0.0444,0.0444,0.0459,0.046,0.0461,0.0462,0,0,0.0698,0.0687,0.0684,0.0683,0.064,0.063,0.0572,0.0528,0.0505,0.0477,0.0467,0.0406,0.0414,0.0406,0.0392,0.0375,0.035,0.0393,0.0394,0.0422,0.0364,0.0343,0.0342,0.0348,0.0348,0.0348,0.0387,0,0.0723,0.0737,0.0717,0.0705,0.0697,0.0634,0.0595,0.0545,0.05,0.0476,0.0434,0.0427,0.0398,0.0401,0.0373,0.0371,0.035,0.0342,0.0396,0.0398,0.0393,0.0341,0.0339,0.0371,0.0388,0.0388,0.0388,0,0.0745,0.0751,0.076,0.0731,0.0725,0.0712,0.0636,0.0604,0.0529,0.0499,0.0465,0.0453,0.0422,0.0408,0.0384,0.0388,0.037,0.0359,0.036,0.037,0.0378,0.0418,0.0371,0.0256,0.0389,0.0389,0.0389,0,0.0758,0.0768,0.0782,0.0771,0.0737,0.0717,0.0699,0.0618,0.0595,0.0531,0.0532,0.0484,0.0499,0.0458,0.0428,0.0413,0.042,0.0396,0.0357,0.0357,0.0382,0.0383,0.0241,0.0364,0.0364,0.0364,0.0364,0,0.0753,0.0754,0.0802,0.0786,0.0794,0.0776,0.0763,0.0691,0.0667,0.0664,0.0584,0.059,0.0513,0.0503,0.0455,0.0424,0.0443,0.0355,0.0357,0.0357,0.0357,0.0281,0.0204,0.0365,0.0365,0.0365,0.0364,0,0.0713,0.0745,0.0748,0.0768,0.0782,0.0784,0.0804,0.0797,0.077,0.0765,0.076,0.0694,0.0671,0.0601,0.0548,0.0477,0.0364,0.041,0.0425,0.0426,0.0251,0.0171,0.0059,0.0015,0.0365,0.0364,0.0364,0,0.0688,0.0698,0.0736,0.0749,0.0754,0.0792,0.0808,0.0813,0.0823,0.0834,0.0844,0.0821,0.0806,0.0727,0.0582,0.049,0.0375,0.0405,0.0342,0.0233,0.0147,0.0093,0.006,0.0359,0.0359,0.0358,0.0358,0,0.0638,0.066,0.0667,0.0705,0.0739,0.0791,0.084,0.0871,0.0899,0.0928,0.0963,0.0972,0.0878,0.0779,0.0628,0.0533,0.0299,0.0394,0.0274,0.0116,0.0057,0.0021,0.0358,0.0355,0.0356,0.0356,0.0356,0.0356,0.061,0.061,0.0645,0.0671,0.0715,0.0787,0.083,0.0914,0.0978,0.1061,0.1075,0.115,0.099,0.0775,0.0597,0.0276,0.0268,0.0186,0.0101,0.006,-0.0012,0.032,0.0313,0.0313,0.0313,0.0313,0.0313,0,0.0598,0.0609,0.0623,0.0667,0.071,0.0749,0.0848,0.0919,0.1019,0.1159,0.1238,0.1271,0.1038,0.0772,0.0348,0.0061,-0.0046,-0.0088,-0.017,-0.0187,0.0113,0.0082,0.0032,0.0032,0.0032,0.0032,0.0032,0.0032,0.0598,0.0609,0.0617,0.0674,0.0706,0.0792,0.0853,0.0964,0.109,0.1302,0.1438,0.1534,0.1374,0.0531,-0.0037,-0.0191,-0.0403,-0.0463,-0.0541,-0.0352,-0.0333,-0.0314,-0.0362,-0.0505,-0.0506,-0.0788,-0.0792,-0.0794]}],[{"header":{"parameterUnit":"m.s-1","parameterCategory":2,"la1":30.2991,"la2":30.254,"lo1":-89.0895,"lo2":-89.0444,"dy":0.0017,"dx":0.0017,"nx":28,"ny":28,"refTime":"2024-06-30T09:00:00:Z","depth":"2","parameterNumber":2,"parameterNumberName":"U-component_of_CURRENTS"},"data":[0,0,0,0,0,0,0,0,0,0,0,0,0,0,0,0,0,0,0,0,0,0,0,0,0,0,0,0,0,0,0,0,0,0,0,0,0,0,0,0,0,0,0,0,0,0,0,0,0,0,0,0,0,0,0,0,0,0,0.0308,0.0308,0,0.0231,0.0229,0.0227,0.0192,0.0194,0.0195,0.0196,0.025,0.025,0.0251,0,0,0,0,0,0,0,0,0,0,0,0,0,0.032,0.032,0.0308,0.0308,0.0308,0.0231,0.0229,0.0227,0.0192,0.0194,0.0195,0.0196,0.025,0.025,0.0251,0,0,0,0,0,0,0,0,0,0,0,0,0,0.0276,0.032,0.0308,0.029,0.0288,0.0231,0.0229,0.0226,0.0192,0.0194,0.0195,0.0197,0.025,0.025,0.0251,0.0222,0,0,0.0253,0.0253,0,0,0,0,0,0,0,0,0.0279,0.0274,0.0293,0.0291,0.0289,0.0233,0.0253,0.0235,0.0192,0.0217,0.0196,0.0198,0.0263,0.0262,0.0226,0.0224,0.0227,0.0253,0.0253,0.0254,0.0254,0,0,0,0,0,0,0,0.0282,0.0277,0.0266,0.0293,0.0291,0.025,0.0245,0.0248,0.0225,0.0215,0.0215,0.0223,0.0261,0.0225,0.0228,0.0227,0.0253,0.0254,0.0254,0.0254,0.0297,0.0298,0,0,0,0,0,0,0.0317,0.028,0.0269,0.0265,0.03,0.025,0.0244,0.024,0.0222,0.0223,0.0222,0.0222,0.0224,0.0227,0.023,0.0243,0.0254,0.0254,0.0255,0.0296,0.0297,0.0298,0,0,0,0,0,0,0.0317,0.0316,0.0272,0.028,0.0274,0.025,0.0245,0.0238,0.0275,0.0228,0.023,0.0276,0.0225,0.0229,0.0258,0.0244,0.0254,0.0255,0.0295,0.0297,0.0298,0.0239,0,0,0,0,0,0,0.0318,0.0316,0.0354,0.0282,0.0275,0.0255,0.0244,0.0236,0.0278,0.0279,0.0274,0.0275,0.0227,0.0257,0.0259,0.0245,0.0256,0.0295,0.0296,0.0297,0.024,0.0238,0.0237,0,0,0,0,0,0.0318,0.0335,0.0356,0.0357,0.0318,0.0257,0.0247,0.0228,0.0281,0.0274,0.0281,0.0279,0.0268,0.0258,0.026,0.0246,0.0294,0.0296,0.0297,0.0241,0.0239,0.0237,0,0,0,0,0,0,0.0336,0.0332,0.0353,0.0366,0.0336,0.0256,0.0277,0.028,0.0278,0.0308,0.0287,0.0286,0.0303,0.0304,0.0295,0.0268,0.0283,0.0285,0.024,0.0237,0.0236,0.0222,0.0256,0,0,0,0,0,0.0369,0.0393,0.0363,0.0374,0.0387,0.036,0.0358,0.0332,0.0312,0.0316,0.0331,0.0335,0.0297,0.0299,0.0283,0.0279,0.0306,0.0277,0.0275,0.0273,0.0266,0.0321,0.0323,0.0304,0.0304,0.0304,0,0,0.0365,0.0383,0.0387,0.0385,0.0381,0.0327,0.036,0.0356,0.03,0.0326,0.0328,0.0347,0.0303,0.0266,0.0276,0.0273,0.0291,0.0275,0.0272,0.0267,0.0323,0.0324,0.0326,0.0305,0.0305,0.0305,0,0,0.0313,0.0412,0.0386,0.0381,0.039,0.0364,0.039,0.0368,0.0369,0.0363,0.0351,0.0374,0.0369,0.0292,0.0254,0.0254,0.0289,0.0276,0.0236,0.0289,0.029,0.0292,0.0312,0.0316,0.0261,0.0261,0.0261,0,0.0301,0.028,0.0363,0.0329,0.0326,0.0391,0.0326,0.0311,0.0296,0.0307,0.0373,0.0362,0.0354,0.0242,0.0228,0.0243,0.0287,0.0234,0.0284,0.0286,0.0289,0.031,0.0315,0.0259,0.0259,0.0259,0.026,0,0.0235,0.0201,0.0202,0.0185,0.0192,0.0165,0.0167,0.0207,0.0282,0.0262,0.0281,0.0278,0.0295,0.0265,0.0237,0.0222,0.0252,0.0283,0.0281,0.0287,0.0309,0.0315,0.0255,0.0256,0.0257,0.0257,0,0,0.0207,0.0147,0.0159,0.0116,0.0127,0.0124,0.0092,0.0067,0.0115,0.0133,0.0157,0.0093,0.0209,0.0177,0.0174,0.0172,0.0222,0.0241,0.0245,0.0245,0.0338,0.0339,0.0346,0.0284,0.0286,0.0287,0.0339,0,0.0111,0.0021,0.0019,-0.0078,-0.0126,-0.0061,-0.0056,-0.0043,0.0015,0.0081,0.0075,0.0133,0.0134,0.0213,0.0202,0.0214,0.0242,0.0204,0.0347,0.035,0.0337,0.0354,0.0308,0.035,0.0345,0.0346,0.0347,0,0.0072,-0.0001,-0.0092,-0.0165,-0.0153,-0.0165,-0.0054,-0.0061,0.0007,0.0093,0.0131,0.0177,0.0152,0.023,0.0234,0.0226,0.0309,0.0308,0.0312,0.0337,0.0363,0.0351,0.0363,0.0358,0.0357,0.0356,0.0355,0,0.0117,-0.0061,-0.0109,-0.0129,-0.0183,-0.0154,-0.0115,-0.0025,0.0028,0.0145,0.0223,0.0218,0.0295,0.0322,0.0337,0.0339,0.0355,0.0373,0.0428,0.0428,0.0424,0.0422,0.0454,0.0454,0.0454,0.0453,0.0453,0,0.0083,0.0039,-0.0075,-0.0084,-0.0062,-0.0084,0.001,0.0095,0.0179,0.0241,0.0289,0.0326,0.0348,0.0337,0.0352,0.0385,0.0404,0.0421,0.0448,0.0402,0.0397,0.0438,0.0435,0.0455,0.0455,0.0455,0.0454,0,0.0195,0.0114,0.0028,-0.0052,-0.0033,0.0039,0.0106,0.0145,0.0277,0.0352,0.0406,0.0439,0.0481,0.0434,0.0479,0.0442,0.0447,0.0486,0.0404,0.0421,0.0478,0.0472,0.0543,0.0543,0.0544,0.0544,0.0545,0,0.024,0.0203,0.0131,0.0119,0.0101,0.0161,0.0207,0.0277,0.0271,0.0391,0.0384,0.0477,0.0524,0.0526,0.0511,0.0531,0.054,0.0486,0.0479,0.0471,0.0491,0.0484,0.0477,0.0443,0.0443,0.0443,0.0442,0,0.0259,0.0285,0.0236,0.0237,0.0243,0.0222,0.024,0.0253,0.0311,0.0388,0.0457,0.0519,0.0575,0.058,0.0602,0.0572,0.0456,0.0482,0.0521,0.0427,0.0382,0.0399,0.0396,0.0439,0.0439,0.0439,0.0439,0.044,0.0295,0.03,0.0265,0.0291,0.0316,0.0276,0.027,0.0234,0.03,0.0377,0.0421,0.0541,0.0492,0.0555,0.0545,0.0544,0.0557,0.0483,0.0483,0.0483,0.0461,0.042,0.0478,0.0478,0.0479,0.0479,0.0479,0,0.0227,0.0274,0.0281,0.026,0.0289,0.0346,0.0275,0.0231,0.0288,0.0374,0.0482,0.0451,0.0484,0.052,0.0553,0.0517,0.0485,0.0475,0.044,0.0442,0.0443,0.0419,0.0425,0.0425,0.0426,0.0426,0,0,0.0151,0.0157,0.0178,0.0211,0.0289,0.0297,0.0285,0.0268,0.028,0.0375,0.0479,0.0459,0.0493,0.0452,0.0414,0.0481,0.0458,0.0447,0.0479,0.0439,0.0443,0.0422,0.0382,0,0,0,0,0]},{"header":{"parameterUnit":"m.s-1","parameterCategory":2,"la1":30.2991,"la2":30.254,"lo1":-89.0895,"lo2":-89.0444,"dy":0.0017,"dx":0.0017,"nx":28,"ny":28,"refTime":"2024-06-30T09:00:00:Z","depth":"2","parameterNumber":3,"parameterNumberName":"V-component_of_CURRENTS"},"data":[0,0,0,0,0,0,0,0,0,0,0,0,0,0,0,0,0,0,0,0,0,0,0,0,0,0,0,0,0,0,0,0,0,0,0,0,0,0,0,0,0,0,0,0,0,0,0,0,0,0,0,0,0,0,0,0,0,0,-0.0447,-0.0448,0,-0.0465,-0.0465,-0.0465,-0.0475,-0.0476,-0.0476,-0.0476,-0.0469,-0.0469,-0.0468,0,0,0,0,0,0,0,0,0,0,0,0,0,-0.0404,-0.0404,-0.0447,-0.0448,-0.0448,-0.0465,-0.0465,-0.0465,-0.0475,-0.0476,-0.0476,-0.0476,-0.0469,-0.0469,-0.0468,0,0,0,0,0,0,0,0,0,0,0,0,0,-0.042,-0.0405,-0.0447,-0.0457,-0.0458,-0.0465,-0.0465,-0.0465,-0.0475,-0.0476,-0.0476,-0.0476,-0.0469,-0.0469,-0.0468,-0.0456,0,0,-0.0466,-0.0466,0,0,0,0,0,0,0,0,-0.0419,-0.0421,-0.0455,-0.0456,-0.0458,-0.0471,-0.0448,-0.0462,-0.0475,-0.0466,-0.0476,-0.0477,-0.0468,-0.0468,-0.0467,-0.0456,-0.0456,-0.0466,-0.0466,-0.0465,-0.0465,0,0,0,0,0,0,0,-0.0418,-0.0421,-0.0452,-0.0456,-0.0457,-0.0455,-0.0457,-0.045,-0.0463,-0.0467,-0.0469,-0.0474,-0.0469,-0.0468,-0.0467,-0.0456,-0.0466,-0.0465,-0.0465,-0.0465,-0.0403,-0.0401,0,0,0,0,0,0,-0.0421,-0.042,-0.0451,-0.0453,-0.0442,-0.0455,-0.0458,-0.0464,-0.0463,-0.0465,-0.0474,-0.0475,-0.0469,-0.0468,-0.0467,-0.0435,-0.0465,-0.0465,-0.0464,-0.0404,-0.0402,-0.0401,0,0,0,0,0,0,-0.042,-0.0424,-0.0451,-0.0438,-0.0442,-0.0456,-0.0463,-0.0464,-0.0469,-0.0469,-0.0469,-0.0478,-0.0469,-0.0468,-0.0464,-0.0436,-0.0464,-0.0464,-0.0405,-0.0403,-0.0402,-0.0383,0,0,0,0,0,0,-0.0419,-0.0423,-0.0428,-0.0439,-0.0443,-0.0442,-0.0463,-0.0465,-0.0473,-0.0474,-0.0472,-0.0472,-0.0469,-0.0465,-0.0463,-0.0435,-0.0463,-0.0407,-0.0404,-0.0402,-0.0385,-0.038,-0.0376,0,0,0,0,0,-0.0417,-0.0411,-0.0428,-0.0432,-0.0449,-0.0442,-0.0442,-0.0453,-0.0473,-0.0461,-0.0473,-0.0472,-0.0448,-0.0464,-0.0462,-0.0433,-0.0408,-0.0405,-0.0402,-0.0387,-0.0381,-0.0377,0,0,0,0,0,0,-0.038,-0.0412,-0.0431,-0.0432,-0.0436,-0.0444,-0.043,-0.0455,-0.0456,-0.0453,-0.047,-0.0469,-0.0451,-0.0445,-0.0463,-0.0406,-0.0422,-0.0418,-0.041,-0.0405,-0.0401,-0.0413,-0.0463,0,0,0,0,0,-0.0381,-0.038,-0.0411,-0.04,-0.0405,-0.0423,-0.0425,-0.0433,-0.0438,-0.044,-0.044,-0.0436,-0.0435,-0.0426,-0.0416,-0.0392,-0.0401,-0.0366,-0.0362,-0.0359,-0.0366,-0.0357,-0.0353,-0.0392,-0.0392,-0.0392,0,0,-0.0348,-0.0374,-0.0365,-0.0392,-0.0391,-0.0398,-0.0422,-0.0409,-0.0422,-0.0437,-0.0431,-0.0424,-0.0428,-0.0401,-0.039,-0.0394,-0.0351,-0.0355,-0.0352,-0.0361,-0.0353,-0.035,-0.0347,-0.039,-0.039,-0.039,0,0,-0.0312,-0.0318,-0.0328,-0.0331,-0.0347,-0.0357,-0.0359,-0.0368,-0.0378,-0.0386,-0.0393,-0.0377,-0.0374,-0.036,-0.0363,-0.0329,-0.0335,-0.031,-0.0294,-0.0285,-0.0282,-0.028,-0.0289,-0.0288,-0.0301,-0.0301,-0.0301,0,-0.0287,-0.031,-0.032,-0.0337,-0.0336,-0.0345,-0.0353,-0.036,-0.0365,-0.037,-0.0379,-0.0365,-0.036,-0.0343,-0.0327,-0.032,-0.0323,-0.0317,-0.0281,-0.0279,-0.0278,-0.0287,-0.0286,-0.03,-0.03,-0.03,-0.03,0,-0.0266,-0.0289,-0.0277,-0.0312,-0.031,-0.0293,-0.0318,-0.031,-0.0328,-0.0342,-0.0331,-0.0323,-0.0319,-0.0297,-0.0311,-0.0277,-0.0288,-0.0285,-0.03,-0.0273,-0.0284,-0.0284,-0.0298,-0.0299,-0.0299,-0.0299,0,0,-0.0213,-0.0264,-0.0254,-0.0286,-0.0294,-0.0288,-0.0293,-0.0308,-0.0316,-0.0308,-0.0316,-0.03,-0.0291,-0.0291,-0.0278,-0.0258,-0.0247,-0.0263,-0.0263,-0.0283,-0.0239,-0.0209,-0.0206,-0.0237,-0.0236,-0.0236,-0.0254,0,-0.0205,-0.023,-0.0254,-0.0263,-0.029,-0.0288,-0.0287,-0.029,-0.0308,-0.0302,-0.0294,-0.0293,-0.0293,-0.0283,-0.0265,-0.0252,-0.0243,-0.0243,-0.0253,-0.0254,-0.024,-0.0203,-0.0259,-0.0276,-0.0253,-0.0253,-0.0253,0,-0.0188,-0.0228,-0.0242,-0.028,-0.0281,-0.0274,-0.0269,-0.0273,-0.0271,-0.0275,-0.027,-0.0286,-0.0263,-0.0266,-0.0247,-0.0247,-0.0248,-0.0237,-0.0238,-0.0219,-0.0222,-0.0297,-0.0276,-0.0252,-0.0253,-0.0253,-0.0253,0,-0.0168,-0.0209,-0.022,-0.0225,-0.0266,-0.0263,-0.0256,-0.0257,-0.0262,-0.0258,-0.0267,-0.0254,-0.0242,-0.0243,-0.0241,-0.0251,-0.0213,-0.0229,-0.0207,-0.0206,-0.026,-0.0264,-0.0222,-0.0222,-0.0222,-0.0222,-0.0222,0,-0.016,-0.0178,-0.0208,-0.0228,-0.0229,-0.0243,-0.023,-0.023,-0.022,-0.021,-0.0247,-0.0234,-0.0234,-0.0232,-0.0235,-0.0209,-0.0217,-0.0203,-0.0201,-0.0253,-0.0255,-0.0241,-0.0243,-0.0223,-0.0222,-0.0222,-0.0222,0,-0.0164,-0.0166,-0.0215,-0.0245,-0.0238,-0.0235,-0.0213,-0.0206,-0.0202,-0.0195,-0.02,-0.021,-0.02,-0.0215,-0.0193,-0.0193,-0.0179,-0.017,-0.0234,-0.0238,-0.0191,-0.0192,-0.0172,-0.0171,-0.017,-0.0169,-0.0169,0,-0.0165,-0.0191,-0.0225,-0.0213,-0.0232,-0.0214,-0.0195,-0.0186,-0.0185,-0.0173,-0.0171,-0.0175,-0.013,-0.0098,-0.0122,-0.0131,-0.0143,-0.0194,-0.0217,-0.0182,-0.0183,-0.0185,-0.0186,-0.0295,-0.0295,-0.0295,-0.0296,0,-0.021,-0.0211,-0.0257,-0.023,-0.0212,-0.0195,-0.0174,-0.0176,-0.0159,-0.0117,-0.005,-0.0008,-0.002,-0.0037,-0.0078,-0.0094,-0.0199,-0.02,-0.0146,-0.0279,-0.0293,-0.0295,-0.0294,-0.0299,-0.0299,-0.0298,-0.0298,-0.0298,-0.0232,-0.0258,-0.0268,-0.0246,-0.0196,-0.0158,-0.0139,-0.0091,-0.0029,0.0063,0.0079,0.017,-0.0011,-0.0026,-0.01,-0.0177,-0.0161,-0.0231,-0.0232,-0.0233,-0.0224,-0.0233,-0.0228,-0.0227,-0.0227,-0.0226,-0.0226,0,-0.0241,-0.0242,-0.0254,-0.0224,-0.015,-0.0116,-0.0098,-0.0028,0.01,0.0156,0.0302,0.0173,0.0107,-0.0053,-0.0175,-0.0245,-0.0263,-0.028,-0.0337,-0.0334,-0.0331,-0.033,-0.0361,-0.0361,-0.0361,-0.0361,0,0,-0.0244,-0.0246,-0.0275,-0.0172,-0.0104,-0.0017,0.0011,0.0162,0.0211,0.0338,0.0368,0.0375,0.0092,-0.0059,-0.0216,-0.0279,-0.0267,-0.0277,-0.017,-0.022,-0.0215,-0.0314,-0.0309,0,0,0,0,0]}],[{"header":{"parameterUnit":"m.s-1","parameterCategory":2,"la1":30.2991,"la2":30.254,"lo1":-89.0895,"lo2":-89.0444,"dy":0.0017,"dx":0.0017,"nx":28,"ny":28,"refTime":"2024-06-30T09:00:00:Z","depth":"4","parameterNumber":2,"parameterNumberName":"U-component_of_CURRENTS"},"data":[0,0,0,0,0,0,0,0,0,0,0,0,0,0,0,0,0,0,0,0,0,0,0,0,0,0,0,0,0,0,0,0,0,0,0,0,0,0,0,0,0,0,0,0,0,0,0,0,0,0,0,0,0,0,0,0,0,0,-0.0382,-0.0382,0,-0.0354,-0.0354,-0.0353,-0.0372,-0.0373,-0.0374,-0.0375,-0.0496,-0.0498,-0.05,0,0,0,0,0,0,0,0,0,0,0,0,0,-0.0382,-0.0382,-0.0382,-0.0382,-0.0382,-0.0354,-0.0354,-0.0353,-0.0372,-0.0373,-0.0374,-0.0376,-0.0495,-0.0497,-0.05,0,0,0,0,0,0,0,0,0,0,0,0,0,-0.0368,-0.0382,-0.0382,-0.039,-0.0391,-0.0355,-0.0354,-0.0353,-0.0371,-0.0373,-0.0375,-0.0376,-0.0494,-0.0497,-0.05,-0.0484,0,0,-0.051,-0.0511,0,0,0,0,0,0,0,0,-0.0369,-0.0367,-0.0389,-0.039,-0.039,-0.0372,-0.0398,-0.0405,-0.0371,-0.0375,-0.0375,-0.0377,-0.0469,-0.0474,-0.0458,-0.049,-0.0495,-0.051,-0.0512,-0.0514,-0.0514,0,0,0,0,0,0,0,-0.037,-0.0368,-0.0367,-0.0389,-0.039,-0.0373,-0.0373,-0.0398,-0.0412,-0.0375,-0.0377,-0.0379,-0.047,-0.0454,-0.0461,-0.0497,-0.051,-0.0513,-0.0515,-0.0516,-0.0631,-0.0632,0,0,0,0,0,0,-0.0382,-0.0369,-0.0368,-0.0367,-0.0388,-0.0372,-0.0372,-0.0373,-0.0409,-0.0416,-0.0378,-0.038,-0.0448,-0.0458,-0.0466,-0.055,-0.0513,-0.0516,-0.0518,-0.063,-0.0631,-0.0632,0,0,0,0,0,0,-0.0382,-0.0382,-0.0369,-0.037,-0.0368,-0.0371,-0.0371,-0.0371,-0.0394,-0.041,-0.042,-0.0405,-0.045,-0.0462,-0.0519,-0.0552,-0.0518,-0.0521,-0.0628,-0.063,-0.0632,-0.0656,0,0,0,0,0,0,-0.0382,-0.0382,-0.0386,-0.0371,-0.0369,-0.0372,-0.037,-0.037,-0.0392,-0.0396,-0.0436,-0.0446,-0.0452,-0.0514,-0.0522,-0.0556,-0.0523,-0.0627,-0.0629,-0.0631,-0.0653,-0.0658,-0.0662,0,0,0,0,0,-0.0382,-0.0381,-0.0386,-0.0386,-0.0374,-0.0373,-0.0371,-0.0375,-0.0392,-0.0402,-0.0434,-0.0447,-0.0534,-0.0517,-0.0526,-0.0562,-0.0626,-0.0628,-0.0631,-0.0651,-0.0657,-0.0662,0,0,0,0,0,0,-0.0379,-0.0383,-0.0388,-0.0388,-0.0394,-0.0379,-0.038,-0.0394,-0.042,-0.043,-0.0459,-0.0471,-0.0534,-0.0544,-0.0525,-0.0601,-0.0583,-0.0588,-0.0596,-0.0601,-0.0605,-0.059,-0.0526,0,0,0,0,0,-0.0381,-0.0388,-0.0388,-0.0392,-0.0393,-0.0395,-0.0397,-0.0403,-0.0421,-0.0434,-0.0474,-0.051,-0.0541,-0.0571,-0.0596,-0.0638,-0.0617,-0.0668,-0.0672,-0.0676,-0.0669,-0.0656,-0.0657,-0.0641,-0.0641,-0.0641,0,0,-0.038,-0.0385,-0.0387,-0.0393,-0.0391,-0.0386,-0.04,-0.0408,-0.0419,-0.0445,-0.0493,-0.0531,-0.0556,-0.06,-0.0629,-0.062,-0.067,-0.0679,-0.0682,-0.0673,-0.0659,-0.066,-0.0661,-0.0643,-0.0642,-0.0642,0,0,-0.0371,-0.0386,-0.0382,-0.0392,-0.04,-0.0395,-0.0411,-0.0425,-0.0448,-0.0494,-0.0514,-0.056,-0.0631,-0.0634,-0.0649,-0.069,-0.0693,-0.073,-0.0741,-0.0729,-0.0729,-0.073,-0.0702,-0.07,-0.0732,-0.0732,-0.0732,0,-0.037,-0.0369,-0.0382,-0.0383,-0.0391,-0.0408,-0.0407,-0.0419,-0.046,-0.0485,-0.0521,-0.0597,-0.063,-0.0651,-0.0684,-0.0697,-0.0699,-0.0719,-0.0732,-0.0732,-0.0732,-0.0703,-0.07,-0.0734,-0.0734,-0.0733,-0.0733,0,-0.0354,-0.0363,-0.0364,-0.0369,-0.0378,-0.0385,-0.0402,-0.0444,-0.049,-0.0501,-0.0565,-0.06,-0.0654,-0.0675,-0.0706,-0.0732,-0.0736,-0.0736,-0.0713,-0.0734,-0.0704,-0.07,-0.0736,-0.0735,-0.0735,-0.0734,0,0,-0.0339,-0.0348,-0.0354,-0.0359,-0.0378,-0.038,-0.0416,-0.0441,-0.0469,-0.0523,-0.0558,-0.0621,-0.0661,-0.0679,-0.0716,-0.0712,-0.0727,-0.0751,-0.075,-0.0713,-0.0708,-0.0597,-0.0582,-0.075,-0.075,-0.0749,-0.0685,0,-0.0328,-0.032,-0.0335,-0.0341,-0.0339,-0.0383,-0.0415,-0.0446,-0.0488,-0.0531,-0.0558,-0.0615,-0.0653,-0.0714,-0.0711,-0.0733,-0.0721,-0.0744,-0.0702,-0.0699,-0.0589,-0.0575,-0.0748,-0.0682,-0.0681,-0.068,-0.068,0,-0.0314,-0.0313,-0.0308,-0.034,-0.0346,-0.036,-0.0421,-0.0458,-0.0507,-0.0556,-0.0597,-0.0631,-0.0666,-0.0695,-0.0694,-0.0724,-0.0731,-0.0718,-0.0715,-0.0597,-0.0581,-0.0659,-0.0673,-0.0673,-0.0674,-0.0674,-0.0675,0,-0.0297,-0.0304,-0.0301,-0.0311,-0.0339,-0.0377,-0.0418,-0.0471,-0.0505,-0.0588,-0.0612,-0.0644,-0.0675,-0.0685,-0.0675,-0.0727,-0.0622,-0.0678,-0.0556,-0.0548,-0.0657,-0.0658,-0.0651,-0.0651,-0.0651,-0.0651,-0.0651,0,-0.0286,-0.0295,-0.0299,-0.0305,-0.0325,-0.0372,-0.041,-0.0482,-0.0538,-0.054,-0.0636,-0.0606,-0.0685,-0.0633,-0.0646,-0.0555,-0.0596,-0.0539,-0.0517,-0.067,-0.0673,-0.0654,-0.0655,-0.0649,-0.0649,-0.065,-0.065,0,-0.0277,-0.0279,-0.0285,-0.0311,-0.0317,-0.0353,-0.0408,-0.0427,-0.0519,-0.0528,-0.0569,-0.0591,-0.0548,-0.0536,-0.0512,-0.0493,-0.0434,-0.0383,-0.0503,-0.0492,-0.0391,-0.0395,-0.0296,-0.0291,-0.0287,-0.0284,-0.0281,0,-0.0271,-0.027,-0.0277,-0.0273,-0.029,-0.0327,-0.0339,-0.0427,-0.043,-0.0467,-0.044,-0.0431,-0.0428,-0.0276,-0.0293,-0.0263,-0.0262,-0.025,-0.0377,-0.0363,-0.0352,-0.0362,-0.0371,-0.0275,-0.0274,-0.0273,-0.0272,0,-0.0272,-0.0281,-0.0276,-0.025,-0.0254,-0.0242,-0.0265,-0.0261,-0.0335,-0.039,-0.033,-0.0315,-0.0217,-0.0194,-0.0147,-0.0128,-0.0284,-0.0211,-0.0222,-0.0343,-0.0337,-0.0332,-0.0345,-0.0259,-0.0261,-0.0262,-0.0263,0,-0.028,-0.0275,-0.0256,-0.0232,-0.0208,-0.0162,-0.0184,-0.0161,-0.0183,-0.0245,-0.0177,-0.0162,-0.0169,-0.011,-0.0042,-0.0033,-0.0088,-0.014,-0.0157,-0.0172,-0.016,-0.0136,0.0042,0,0,0,0,0,-0.0276,-0.0259,-0.0234,-0.0187,-0.0144,-0.0125,-0.0118,-0.0136,-0.0171,-0.0123,-0.0177,-0.0095,-0.0052,-0.0008,0.0018,0.0012,-0.0079,0.0044,-0.0146,-0.0184,-0.0199,-0.0198,0,0,0,0,0,0,-0.0278,-0.026,-0.0229,-0.0134,-0.0081,-0.0027,-0.0019,-0.0043,-0.0018,-0.0067,-0.0025,-0.008,-0.0013,-0.0061,0.0026,0.003,-0.0087,0.0048,0.0048,-0.0175,-0.0189,-0.0202,-0.0205,0,0,0,0,0]},{"header":{"parameterUnit":"m.s-1","parameterCategory":2,"la1":30.2991,"la2":30.254,"lo1":-89.0895,"lo2":-89.0444,"dy":0.0017,"dx":0.0017,"nx":28,"ny":28,"refTime":"2024-06-30T09:00:00:Z","depth":"4","parameterNumber":3,"parameterNumberName":"V-component_of_CURRENTS"},"data":[0,0,0,0,0,0,0,0,0,0,0,0,0,0,0,0,0,0,0,0,0,0,0,0,0,0,0,0,0,0,0,0,0,0,0,0,0,0,0,0,0,0,0,0,0,0,0,0,0,0,0,0,0,0,0,0,0,0,-0.0151,-0.0152,0,-0.0219,-0.022,-0.0221,-0.0269,-0.0269,-0.0269,-0.027,-0.0351,-0.0352,-0.0354,0,0,0,0,0,0,0,0,0,0,0,0,0,-0.0046,-0.0048,-0.0151,-0.0152,-0.0153,-0.0219,-0.022,-0.0221,-0.0269,-0.0269,-0.027,-0.027,-0.035,-0.0352,-0.0354,0,0,0,0,0,0,0,0,0,0,0,0,0,-0.01,-0.0048,-0.0151,-0.0185,-0.0189,-0.0219,-0.022,-0.0221,-0.0268,-0.0269,-0.027,-0.027,-0.0349,-0.0352,-0.0355,-0.0358,0,0,-0.0363,-0.0364,0,0,0,0,0,0,0,0,-0.0097,-0.0104,-0.0179,-0.0183,-0.0187,-0.0237,-0.0213,-0.0268,-0.0268,-0.0238,-0.027,-0.0271,-0.0314,-0.0319,-0.033,-0.0361,-0.0365,-0.0363,-0.0364,-0.0365,-0.0366,0,0,0,0,0,0,0,-0.0093,-0.0101,-0.0177,-0.018,-0.0185,-0.0192,-0.02,-0.0223,-0.0271,-0.024,-0.0244,-0.0253,-0.0316,-0.0327,-0.0332,-0.0366,-0.0363,-0.0365,-0.0367,-0.0368,-0.0464,-0.0465,0,0,0,0,0,0,-0.0087,-0.0098,-0.0175,-0.018,-0.0144,-0.0193,-0.0203,-0.022,-0.027,-0.0279,-0.0252,-0.0255,-0.0322,-0.0329,-0.0335,-0.0406,-0.0365,-0.0368,-0.0369,-0.0463,-0.0464,-0.0465,0,0,0,0,0,0,-0.0084,-0.0093,-0.0173,-0.014,-0.0151,-0.0194,-0.0213,-0.0221,-0.0257,-0.0279,-0.0288,-0.0283,-0.0323,-0.0331,-0.039,-0.0407,-0.0369,-0.0371,-0.0462,-0.0463,-0.0465,-0.0507,0,0,0,0,0,0,-0.0081,-0.0092,-0.0105,-0.014,-0.0152,-0.0213,-0.0213,-0.0221,-0.0259,-0.0264,-0.0308,-0.0315,-0.0324,-0.0386,-0.0393,-0.041,-0.0374,-0.046,-0.0462,-0.0464,-0.0505,-0.051,-0.0515,0,0,0,0,0,-0.0077,-0.0104,-0.0105,-0.0115,-0.0168,-0.0214,-0.0222,-0.0253,-0.0261,-0.0286,-0.0321,-0.0315,-0.0402,-0.039,-0.0397,-0.0416,-0.046,-0.0462,-0.0464,-0.0502,-0.0509,-0.0515,0,0,0,0,0,0,-0.0072,-0.0112,-0.0115,-0.0153,-0.0186,-0.0223,-0.025,-0.0266,-0.0312,-0.0319,-0.034,-0.035,-0.0407,-0.0406,-0.0392,-0.0447,-0.0424,-0.0428,-0.0451,-0.0457,-0.0462,-0.0447,-0.0376,0,0,0,0,0,-0.0072,-0.01,-0.0135,-0.0167,-0.0185,-0.0217,-0.024,-0.026,-0.0301,-0.0323,-0.0358,-0.0386,-0.0416,-0.0435,-0.0464,-0.0498,-0.0475,-0.0509,-0.0514,-0.0519,-0.0511,-0.0495,-0.0497,-0.0472,-0.0472,-0.0472,0,0,-0.008,-0.0103,-0.0121,-0.0166,-0.0193,-0.0228,-0.0234,-0.0278,-0.0311,-0.0323,-0.0391,-0.0415,-0.0432,-0.0477,-0.0499,-0.0481,-0.0516,-0.0521,-0.0525,-0.0514,-0.0498,-0.05,-0.0502,-0.0474,-0.0474,-0.0473,0,0,-0.0108,-0.013,-0.0161,-0.0191,-0.0232,-0.0249,-0.0267,-0.0318,-0.0347,-0.0408,-0.0421,-0.0456,-0.0515,-0.0521,-0.0531,-0.0577,-0.055,-0.0588,-0.0596,-0.0582,-0.0583,-0.0584,-0.0565,-0.0563,-0.0582,-0.0582,-0.0582,0,-0.0116,-0.0152,-0.0178,-0.0215,-0.0239,-0.0262,-0.0298,-0.0331,-0.0397,-0.0423,-0.0439,-0.0509,-0.0529,-0.0555,-0.0575,-0.0587,-0.0574,-0.0573,-0.0587,-0.0587,-0.0587,-0.0567,-0.0565,-0.0584,-0.0584,-0.0584,-0.0583,0,-0.0163,-0.0193,-0.0218,-0.0263,-0.0294,-0.0331,-0.037,-0.0416,-0.045,-0.0475,-0.0531,-0.0556,-0.0586,-0.06,-0.0608,-0.0619,-0.0608,-0.0601,-0.0568,-0.0592,-0.057,-0.0567,-0.0587,-0.0587,-0.0586,-0.0585,0,0,-0.0188,-0.0237,-0.025,-0.0262,-0.0319,-0.0345,-0.0407,-0.0457,-0.0488,-0.0544,-0.058,-0.0626,-0.0624,-0.0632,-0.0634,-0.0625,-0.0624,-0.0617,-0.0615,-0.0592,-0.0592,-0.0579,-0.0574,-0.0623,-0.0623,-0.0622,-0.0577,0,-0.0216,-0.0264,-0.0293,-0.0341,-0.0362,-0.0405,-0.0453,-0.0501,-0.0543,-0.0589,-0.0603,-0.0636,-0.0637,-0.0648,-0.0641,-0.0632,-0.0619,-0.0637,-0.0576,-0.0574,-0.0555,-0.0571,-0.0621,-0.0575,-0.0574,-0.0574,-0.0573,0,-0.0254,-0.0275,-0.0318,-0.0355,-0.0373,-0.0412,-0.0475,-0.0523,-0.0584,-0.0618,-0.0644,-0.0651,-0.0654,-0.0649,-0.0622,-0.0636,-0.0616,-0.0603,-0.06,-0.0567,-0.0556,-0.0545,-0.0568,-0.0568,-0.0569,-0.0569,-0.057,0,-0.0234,-0.0293,-0.0315,-0.0335,-0.0389,-0.043,-0.047,-0.0537,-0.0571,-0.0629,-0.0649,-0.0654,-0.0651,-0.0632,-0.0607,-0.0616,-0.057,-0.0573,-0.0538,-0.0536,-0.0541,-0.054,-0.0545,-0.0545,-0.0546,-0.0546,-0.0546,0,-0.0237,-0.0258,-0.031,-0.0324,-0.0363,-0.0416,-0.0467,-0.0521,-0.0578,-0.0598,-0.0647,-0.0632,-0.0647,-0.0624,-0.0604,-0.0559,-0.056,-0.0536,-0.0524,-0.0562,-0.0564,-0.0539,-0.0539,-0.0544,-0.0544,-0.0545,-0.0545,0,-0.0196,-0.0237,-0.0263,-0.0326,-0.0352,-0.0383,-0.0459,-0.0489,-0.0556,-0.0584,-0.0597,-0.0614,-0.0581,-0.0587,-0.0548,-0.0545,-0.0509,-0.0491,-0.0527,-0.0518,-0.0486,-0.0489,-0.0449,-0.0448,-0.0447,-0.0447,-0.0446,0,-0.0174,-0.0183,-0.0248,-0.0277,-0.031,-0.0365,-0.0402,-0.0477,-0.0494,-0.0544,-0.0533,-0.0533,-0.0536,-0.0469,-0.0478,-0.0458,-0.0455,-0.0456,-0.048,-0.0484,-0.0476,-0.048,-0.0484,-0.0445,-0.0445,-0.0445,-0.0445,0,-0.013,-0.016,-0.0183,-0.0227,-0.0277,-0.0319,-0.0369,-0.0375,-0.0446,-0.049,-0.0464,-0.0469,-0.0438,-0.0419,-0.0425,-0.0401,-0.0472,-0.0448,-0.045,-0.0473,-0.0479,-0.0473,-0.0477,-0.0442,-0.0442,-0.0443,-0.0443,0,-0.0109,-0.0113,-0.0153,-0.0189,-0.0238,-0.0275,-0.0308,-0.0325,-0.0354,-0.0409,-0.0371,-0.0386,-0.0394,-0.0384,-0.0364,-0.0375,-0.0376,-0.0393,-0.0397,-0.04,-0.0413,-0.0415,-0.0343,0,0,0,0,0,-0.0096,-0.01,-0.0117,-0.0174,-0.0205,-0.0239,-0.0284,-0.0313,-0.0356,-0.0328,-0.0364,-0.0332,-0.0339,-0.0322,-0.0324,-0.0351,-0.0384,-0.0356,-0.0406,-0.0429,-0.0431,-0.0455,0,0,0,0,0,0,-0.0103,-0.011,-0.0105,-0.0141,-0.0167,-0.0212,-0.0243,-0.0278,-0.0257,-0.0294,-0.0272,-0.0325,-0.0302,-0.0323,-0.0313,-0.032,-0.0353,-0.0368,-0.0368,-0.0427,-0.043,-0.0432,-0.0457,0,0,0,0,0]}]]